Погода в Фантхьете

Вьетнам     10°55′43″N   108°06′18″E
темп.,
°C
ветер,
м/с
пор.,
м/с
влажн.,
%
обл.,
%
осадки,
мм/ч
давл.,
гПа
погр.,
м
17 августа, ср
ср1701:00+23з239193 0.4 100956
04:00+23зсз2392100 0.0 100857
07:00+25з358259 0.0 1009219
10:00+31зюз465398 0.0 10091348
13:00+33зюз5650100 0.0 10071732
16:00+31зюз5660100 0.1 10051201
19:00+25зюз23860 0.1 100780
22:00+24з238973 0.0 101057
18 августа, чт
чт1801:00+24з2391100 0.0 100874
04:00+23зсз239226 0.0 100771
07:00+26зсз357715 0.0 1008294
10:00+32з4752100 0.0 10081405
13:00+34з574668 0.0 10061754
16:00+32з575396 0.0 10041343
19:00+26зюз348091 0.0 100689
22:00+25з3482100 0.0 100895
19 августа, пт
пт1901:00+25з3484100 0.0 100697
04:00+24з2486100 0.0 1005127
07:00+26з358069 0.0 1007231
10:00+32з465376 0.0 10071339
13:00+34з564585 0.0 10041840
16:00+32зсз5653100 0.1 10031093
19:00+26з3481100 0.1 100579
22:00+25з3485100 0.0 100797
20 августа, сб
сб2001:00+24з2386100 0.0 100680
04:00+24зсз2389100 0.2 100588
07:00+26з367868 0.2 1006307
10:00+32з465175 0.0 10061243
13:00+33з675068 0.1 10031502
16:00+31з5760100 0.1 10031089
19:00+26з3686100 0.3 1005164
22:00+25з2486100 0.0 100790
21 августа, вс
вс2101:00+25з2386100 0.0 100582
04:00+24з3592100 0.0 1005140
07:00+26зсз347991 0.0 1007269
10:00+32з575233 0.0 10061447
13:00+33з6851100 0.2 10041505
16:00+30зюз4762100 0.4 10041181
19:00+25зюз2387100 0.8 100786
22:00+24з2387100 0.1 100880